Location: Zapote
(9.9191°N, 84.0597°W)
Time: 18:04:33
(UTC-06:00)

Transit 2A - Pass Details

Date: 06 March 2021
Orbit: 602 x 957 km, 66.7° (Epoch: 16 April)

Event Time Altitude Azimuth Distance (km) Brightness Sun altitude
Rises 04:08:35 0° 325° (NW) 2,870 - -25.3°
Reaches altitude 10° 04:10:55 10° 315° (NW) 1,993 - -24.7°
Maximum altitude 04:14:59 34° 250° (WSW) 1,063 - -23.7°
Exits shadow 04:17:47 19° 196° (SSW) 1,612 7.5 -23.0°
Drops below altitude 10° 04:19:21 10° 185° (S) 2,144 8.3 -22.6°
Sets 04:21:57 0° 176° (S) 3,122 9.2 -22.0°
